period_start,C,m1,H,J0,J1,J2,J3,J4,J5,JA,JB,JC,JD,JJ,JK,JN,#
2017-10-02 00:00:09,0.00,0.20,0.00,20.72,25.50,28.66,14.19,46.00,1022.00,2039.05,3409.05,3080.00,3470.09,600.58,604.34,40.78,0000 0000 0000 0000 000000
2017-10-02 00:05:10,-0.00,0.20,0.00,20.70,25.49,28.66,14.36,46.33,1022.00,2039.06,3409.14,3080.00,3470.10,600.75,604.61,40.83,0000 0000 0000 0000 000000
2017-10-02 00:10:12,0.00,0.20,0.00,20.76,25.48,28.66,14.11,45.88,1022.01,2039.07,3409.15,3080.00,3470.18,599.60,603.15,40.88,0000 0000 0000 0000 000000
2017-10-02 00:15:13,0.00,0.20,0.00,20.74,25.48,28.64,14.20,46.13,1022.00,2039.06,3409.22,3080.00,3470.16,600.58,604.39,40.93,0000 0000 0000 0000 000000
2017-10-02 00:20:14,-0.00,0.20,0.00,20.74,25.48,28.65,14.25,46.11,1022.00,2039.03,3409.15,3080.00,3470.07,599.51,603.23,40.98,0000 0000 0000 0000 000000
2017-10-02 00:25:16,0.01,0.20,0.00,20.74,25.47,28.63,14.24,46.09,1022.03,2039.05,3409.11,3080.00,3470.08,600.60,604.38,41.03,0000 0000 0000 0000 000000
2017-10-02 00:30:17,0.00,0.20,0.00,20.75,25.47,28.64,14.15,46.17,1022.06,2039.10,3409.00,3079.99,3470.03,600.11,603.96,41.09,0000 0000 0000 0000 000000
2017-10-02 00:35:18,0.03,0.20,0.00,20.73,25.47,28.64,14.14,45.80,1022.06,2039.31,3408.99,3079.99,3470.05,599.09,602.93,41.14,0000 0000 0000 0000 000000
2017-10-02 00:40:19,-0.01,0.20,0.00,20.72,25.47,28.63,14.21,45.91,1022.07,2039.28,3409.00,3079.99,3470.06,600.03,603.99,41.19,0000 0000 0000 0000 000000
2017-10-02 00:45:20,-0.01,0.20,0.00,20.78,25.47,28.63,14.14,46.23,1022.17,2039.25,3409.00,3079.99,3470.02,599.67,603.86,41.24,0000 0000 0000 0000 000000
2017-10-02 00:50:22,0.01,0.20,0.00,20.86,25.48,28.69,14.25,45.98,1022.11,2039.44,3409.00,3079.99,3470.02,599.70,603.35,41.29,0000 0000 0000 0000 000000
2017-10-02 00:55:23,0.00,0.20,0.00,20.88,25.50,28.59,14.22,45.85,1022.30,2039.38,3409.00,3079.99,3470.01,599.89,603.57,41.34,0000 0000 0000 0000 000000
2017-10-02 01:00:24,0.03,0.20,0.00,20.84,25.50,28.45,14.18,45.83,1022.44,2039.69,3409.01,3080.00,3470.06,600.09,603.93,41.39,0000 0000 0000 0000 000000
2017-10-02 01:05:26,-0.02,0.20,0.00,20.78,25.50,28.42,14.12,46.13,1022.47,2039.64,3409.01,3080.00,3470.03,599.39,603.55,41.44,0000 0000 0000 0000 000000
2017-10-02 01:10:27,0.03,0.21,0.00,20.72,25.47,28.51,14.20,46.11,1022.48,2039.90,3409.03,3080.00,3470.27,600.24,604.46,41.49,0000 0000 0000 0000 000000
2017-10-02 01:15:28,-0.01,0.20,0.00,20.68,25.45,28.72,14.32,46.71,1022.47,2039.96,3409.27,3080.05,3470.65,600.57,604.81,41.54,0000 0000 0000 0000 000000
2017-10-02 01:20:30,-0.01,0.20,0.00,20.63,25.41,28.82,14.14,46.07,1022.46,2039.98,3409.86,3080.30,3470.94,599.86,603.92,41.59,0000 0000 0000 0000 000000
2017-10-02 01:25:31,-0.01,0.20,0.00,20.58,25.37,28.81,14.21,46.21,1022.46,2039.98,3409.96,3080.77,3470.99,600.01,604.46,41.64,0000 0000 0000 0000 000000
2017-10-02 01:30:32,0.00,0.20,0.00,20.53,25.33,28.73,14.25,46.28,1022.47,2039.99,3409.99,3080.99,3471.02,599.54,603.91,41.69,0000 0000 0000 0000 000000
2017-10-02 01:35:33,0.00,0.20,0.00,20.52,25.28,28.62,14.23,46.47,1022.47,2040.00,3410.00,3081.00,3471.39,600.65,605.22,41.74,0000 0000 0000 0000 000000
2017-10-02 01:40:35,-0.01,0.20,0.00,20.49,25.22,28.53,14.18,46.34,1022.46,2040.02,3410.32,3081.14,3471.85,600.11,604.89,41.79,0000 0000 0000 0000 000000
2017-10-02 01:45:36,-0.01,0.20,0.00,20.49,25.17,28.43,14.21,46.41,1022.41,2040.07,3410.94,3081.78,3471.99,599.63,604.15,41.84,0000 0000 0000 0000 000000
2017-10-02 01:50:37,0.06,0.20,0.00,20.45,25.11,28.37,14.17,46.30,1022.38,2040.57,3410.99,3081.98,3472.10,599.82,604.33,41.89,0000 0000 0000 0000 000000
2017-10-02 01:55:38,0.00,0.20,0.00,20.40,25.06,28.29,14.29,46.63,1022.46,2040.97,3410.99,3082.00,3472.79,600.68,605.47,41.94,0000 0000 0000 0000 000000
2017-10-02 02:00:40,-0.00,0.20,0.00,20.41,25.00,28.20,14.21,46.26,1022.42,2040.99,3411.02,3082.18,3472.99,599.92,604.78,41.99,0000 0000 0000 0000 000000
2017-10-02 02:05:41,-0.03,0.20,0.00,20.39,24.95,28.12,14.19,46.08,1022.29,2041.02,3411.50,3082.84,3473.11,600.05,604.64,42.04,0000 0000 0000 0000 000000
2017-10-02 02:10:42,0.00,0.20,0.00,20.41,24.89,28.06,14.15,46.66,1022.30,2041.21,3411.98,3082.99,3473.80,600.43,605.51,42.09,0000 0000 0000 0000 000000
2017-10-02 02:15:43,0.05,0.20,0.00,20.39,24.84,28.02,14.22,46.17,1022.37,2041.78,3412.02,3083.17,3473.99,600.23,604.97,42.14,0000 0000 0000 0000 000000
2017-10-02 02:20:44,-0.02,0.20,0.00,20.38,24.79,27.96,14.07,45.89,1022.40,2041.96,3412.58,3083.86,3474.10,599.83,604.58,42.19,0000 0000 0000 0000 000000
2017-10-02 02:25:45,-0.01,0.20,0.00,20.39,24.73,27.90,14.06,45.90,1022.40,2041.99,3412.98,3084.00,3474.80,600.13,605.07,42.24,0000 0000 0000 0000 000000
2017-10-02 02:30:46,-0.00,0.20,0.00,20.34,24.68,27.86,14.19,46.22,1022.43,2042.00,3413.02,3084.13,3474.99,600.30,604.93,42.29,0000 0000 0000 0000 000000
2017-10-02 02:35:48,0.01,0.20,0.00,20.36,24.63,27.81,14.09,46.11,1022.42,2042.19,3413.25,3084.74,3475.18,599.95,604.78,42.34,0000 0000 0000 0000 000000
2017-10-02 02:40:50,0.02,0.20,0.00,20.34,24.59,27.75,14.13,46.20,1022.39,2042.77,3413.94,3084.99,3475.89,599.96,604.86,42.39,0000 0000 0000 0000 000000
2017-10-02 02:45:51,0.00,0.20,0.00,20.33,24.54,27.73,14.27,46.36,1022.44,2042.98,3413.99,3085.01,3475.99,600.35,605.22,42.44,0000 0000 0000 0000 000000
2017-10-02 02:50:52,-0.02,0.20,0.00,20.32,24.50,27.65,14.17,46.24,1022.44,2043.00,3414.02,3085.40,3476.24,600.00,605.36,42.49,0000 0000 0000 0000 000000
2017-10-02 02:55:53,-0.01,0.20,0.00,20.31,24.46,27.62,14.19,46.43,1022.39,2043.03,3414.03,3085.92,3476.92,600.14,605.07,42.54,0000 0000 0000 0000 000000
2017-10-02 03:00:55,0.00,0.20,0.00,20.27,24.43,27.53,14.12,46.06,1022.40,2043.11,3414.35,3085.98,3476.98,600.00,604.93,42.59,0000 0000 0000 0000 000000
2017-10-02 03:05:56,0.02,0.20,0.00,20.26,24.39,27.46,14.09,46.17,1022.40,2043.39,3414.75,3085.99,3476.99,600.36,605.34,42.64,0000 0000 0000 0000 000000
2017-10-02 03:10:57,0.04,0.21,0.00,20.24,24.36,27.35,14.21,46.29,1022.34,2043.87,3414.97,3085.99,3477.02,600.46,605.52,42.70,0000 0000 0000 0000 000000
2017-10-02 03:15:59,-0.00,0.21,0.00,20.25,24.33,27.30,14.09,46.26,1022.30,2043.97,3414.99,3086.13,3477.22,599.78,604.78,42.75,0000 0000 0000 0000 000000
2017-10-02 03:21:00,-0.01,0.21,0.00,20.26,24.31,27.28,14.24,46.46,1022.31,2043.98,3415.03,3086.58,3477.40,599.93,605.08,42.80,0000 0000 0000 0000 000000
2017-10-02 03:26:01,-0.01,0.20,0.00,20.26,24.28,27.28,14.26,46.17,1022.33,2043.99,3415.03,3086.92,3477.93,599.93,604.83,42.85,0000 0000 0000 0000 000000
2017-10-02 03:31:03,0.00,0.20,0.00,20.23,24.26,27.28,14.09,46.17,1022.43,2043.99,3415.01,3086.96,3477.98,600.44,605.81,42.90,0000 0000 0000 0000 000000
2017-10-02 03:36:04,0.00,0.20,0.00,20.22,24.24,27.21,14.25,46.13,1022.45,2044.00,3415.05,3086.99,3477.99,600.30,605.20,42.95,0000 0000 0000 0000 000000
2017-10-02 03:41:05,-0.01,0.20,0.00,20.22,24.22,27.16,14.20,46.36,1022.45,2044.02,3415.50,3086.99,3477.99,600.33,605.31,43.00,0000 0000 0000 0000 000000
2017-10-02 03:46:06,-0.00,0.20,0.00,20.22,24.20,27.18,14.14,46.02,1022.42,2044.01,3415.95,3087.00,3478.01,599.44,604.39,43.05,0000 0000 0000 0000 000000
2017-10-02 03:51:07,0.00,0.20,0.00,20.21,24.17,27.15,14.16,46.48,1022.40,2044.06,3415.98,3087.02,3478.08,600.61,605.76,43.10,0000 0000 0000 0000 000000
2017-10-02 03:56:08,0.04,0.20,0.00,20.20,24.16,27.14,14.14,46.01,1022.43,2044.44,3415.98,3087.06,3478.58,599.20,604.35,43.15,0000 0000 0000 0000 000000
2017-10-02 04:01:10,0.01,0.21,0.00,20.19,24.14,27.16,14.11,45.74,1022.43,2044.91,3415.99,3087.22,3478.95,599.37,604.67,43.20,0000 0000 0000 0000 000000
2017-10-02 04:06:11,-0.00,0.21,0.00,20.18,24.12,27.15,14.24,46.05,1022.38,2044.98,3415.99,3087.67,3478.96,600.30,605.64,43.25,0000 0000 0000 0000 000000
2017-10-02 04:11:13,-0.00,0.21,0.00,20.17,24.11,27.11,14.06,45.65,1022.43,2044.98,3416.00,3087.93,3478.99,599.11,604.56,43.30,0000 0000 0000 0000 000000
2017-10-02 04:16:14,0.00,0.21,0.00,20.15,24.10,27.06,14.20,46.18,1022.36,2044.99,3416.00,3087.98,3478.99,600.30,605.56,43.35,0000 0000 0000 0000 000000
2017-10-02 04:21:15,0.00,0.21,0.00,20.16,24.07,27.09,14.24,46.30,1022.34,2045.00,3416.00,3087.99,3479.01,601.07,606.43,43.40,0000 0000 0000 0000 000000
2017-10-02 04:26:16,0.00,0.21,0.00,20.15,24.06,27.12,14.12,46.16,1022.31,2045.01,3416.05,3087.99,3479.04,600.07,605.28,43.45,0000 0000 0000 0000 000000
2017-10-02 04:31:17,-0.01,0.21,0.00,20.15,24.05,27.12,14.25,46.33,1022.41,2045.02,3416.43,3087.99,3479.21,600.15,605.24,43.50,0000 0000 0000 0000 000000
2017-10-02 04:36:19,-0.00,0.21,0.00,20.12,24.03,27.10,14.15,45.96,1022.43,2045.00,3416.51,3088.00,3479.18,599.59,604.87,43.55,0000 0000 0000 0000 000000
2017-10-02 04:41:20,-0.00,0.20,0.00,20.13,24.02,27.10,14.21,46.48,1022.44,2045.01,3416.89,3088.03,3479.48,600.12,605.43,43.60,0000 0000 0000 0000 000000
2017-10-02 04:46:22,0.00,0.20,0.00,20.10,24.00,27.08,14.21,46.37,1022.46,2045.05,3416.94,3088.05,3479.78,600.08,605.52,43.65,0000 0000 0000 0000 000000
2017-10-02 04:51:23,0.00,0.20,0.00,20.12,23.99,27.08,14.23,46.42,1022.47,2045.16,3416.96,3088.10,3479.98,600.10,605.39,43.70,0000 0000 0000 0000 000000
2017-10-02 04:56:24,0.03,0.21,0.00,20.12,23.97,27.09,14.25,46.57,1022.48,2045.52,3416.98,3088.52,3479.99,600.39,605.65,43.75,0000 0000 0000 0000 000000
2017-10-02 05:01:25,-0.00,0.21,0.00,20.13,23.97,27.09,14.00,45.91,1022.47,2045.79,3416.99,3088.88,3479.99,599.38,604.79,43.80,0000 0000 0000 0000 000000
2017-10-02 05:06:27,0.01,0.21,0.00,20.09,23.95,27.09,14.12,46.13,1022.48,2045.79,3416.99,3088.92,3479.99,599.60,605.03,43.85,0000 0000 0000 0000 000000
2017-10-02 05:11:28,0.00,0.21,0.00,20.11,23.95,27.09,14.26,46.39,1022.48,2045.88,3416.99,3088.96,3479.99,600.16,605.48,43.90,0000 0000 0000 0000 000000
2017-10-02 05:16:29,0.01,0.21,0.00,20.10,23.92,27.06,14.19,46.08,1022.48,2045.92,3416.99,3088.96,3480.00,600.03,605.40,43.95,0000 0000 0000 0000 000000
2017-10-02 05:21:31,0.00,0.21,0.00,20.08,23.92,27.04,14.26,46.25,1022.48,2045.98,3417.00,3088.99,3480.01,600.24,605.71,44.00,0000 0000 0000 0000 000000
2017-10-02 05:26:32,0.00,0.21,0.00,20.09,23.91,27.02,14.20,46.18,1022.48,2045.98,3417.00,3088.99,3480.02,599.95,605.38,44.05,0000 0000 0000 0000 000000
2017-10-02 05:31:33,0.00,0.21,0.00,20.05,23.90,27.02,14.12,46.17,1022.48,2045.99,3417.02,3088.99,3480.06,599.29,604.85,44.10,0000 0000 0000 0000 000000
2017-10-02 05:36:34,-0.00,0.21,0.00,20.01,23.89,27.03,14.25,46.45,1022.48,2045.99,3417.02,3088.99,3480.06,600.15,605.66,44.15,0000 0000 0000 0000 000000
2017-10-02 05:41:35,-0.01,0.21,0.00,19.92,23.87,26.97,14.11,45.93,1022.48,2045.99,3417.03,3088.99,3480.51,599.87,605.57,44.20,0000 0000 0000 0000 000000
2017-10-02 05:46:36,-0.01,0.21,0.00,19.82,23.85,26.89,14.18,46.34,1022.48,2045.99,3417.14,3089.00,3480.79,599.86,605.81,44.25,0000 0000 0000 0000 000000
2017-10-02 05:51:37,-0.01,0.21,0.00,19.72,23.83,26.82,14.20,46.19,1022.48,2046.00,3417.56,3089.15,3480.97,600.43,606.47,44.30,0000 0000 0000 0000 000000
2017-10-02 05:56:38,-0.01,0.21,0.00,19.63,23.80,26.79,14.16,46.11,1022.48,2046.00,3417.74,3089.37,3480.99,599.41,605.78,44.35,0000 0000 0000 0000 000000
2017-10-02 06:01:40,-0.01,0.21,0.00,19.52,23.77,26.71,14.19,46.44,1022.48,2046.02,3417.91,3089.82,3480.99,599.87,606.21,44.41,0000 0000 0000 0000 000000
2017-10-02 06:06:41,0.01,0.20,0.00,19.42,23.73,26.62,14.06,45.86,1022.48,2046.10,3417.98,3089.98,3481.02,599.07,605.74,44.46,0000 0000 0000 0000 000000
2017-10-02 06:11:42,0.00,0.21,0.00,19.34,23.70,26.59,14.27,46.38,1022.48,2046.22,3417.99,3089.99,3481.21,600.30,607.26,44.51,0000 0000 0000 0000 000000
2017-10-02 06:16:44,0.04,0.21,0.00,19.24,23.66,26.53,14.19,46.26,1022.48,2046.77,3418.09,3090.11,3481.88,600.01,607.19,44.56,0000 0000 0000 0000 000000
2017-10-02 06:21:45,-0.01,0.21,0.00,19.10,23.61,26.41,14.18,46.15,1022.48,2046.96,3418.37,3090.61,3481.99,599.68,607.13,44.61,0000 0000 0000 0000 000000
2017-10-02 06:26:46,-0.01,0.21,0.00,18.95,23.56,26.29,14.25,46.40,1022.48,2046.99,3418.91,3090.95,3482.03,599.94,607.75,44.66,0000 0000 0000 0000 000000
2017-10-02 06:31:47,-0.01,0.21,0.00,18.82,23.51,26.24,14.24,46.41,1022.48,2046.99,3418.99,3091.02,3482.76,600.37,608.20,44.71,0000 0000 0000 0000 000000
2017-10-02 06:36:48,-0.01,0.21,0.00,18.68,23.46,26.12,14.21,46.38,1022.48,2046.99,3419.03,3091.26,3483.00,599.62,608.06,44.76,0000 0000 0000 0000 000000
2017-10-02 06:41:49,-0.03,0.20,0.00,18.59,23.40,26.02,14.28,46.53,1022.48,2047.02,3419.58,3091.92,3483.21,600.03,608.53,44.81,0000 0000 0000 0000 000000
2017-10-02 06:46:50,0.04,0.20,0.00,18.60,23.34,25.96,14.27,46.57,1022.48,2047.47,3419.98,3092.02,3483.94,599.87,608.29,44.86,0000 0000 0000 0000 000000
2017-10-02 06:51:51,0.01,0.21,0.00,18.60,23.28,25.97,14.26,46.54,1022.48,2047.95,3420.04,3092.51,3484.01,599.89,608.56,44.91,0000 0000 0000 0000 000000
2017-10-02 06:56:53,-0.03,0.21,0.00,18.56,23.23,25.92,14.28,46.63,1022.48,2047.99,3420.76,3092.98,3484.66,599.86,608.53,44.96,0000 0000 0000 0000 000000
2017-10-02 07:01:54,0.00,0.20,0.00,18.65,23.17,25.94,14.23,46.64,1022.48,2048.01,3420.98,3093.01,3484.97,600.21,608.61,45.01,0000 0000 0000 0000 000000
2017-10-02 07:06:55,0.01,0.20,0.00,18.64,23.12,26.02,14.24,46.77,1022.48,2048.24,3421.03,3093.38,3485.02,599.78,608.23,45.06,0000 0000 0000 0000 000000
2017-10-02 07:11:56,0.02,0.21,0.00,18.69,23.07,26.01,14.31,46.62,1022.48,2048.78,3421.42,3093.93,3485.26,600.07,608.33,45.11,0000 0000 0000 0000 000000
2017-10-02 07:16:57,-0.00,0.21,0.00,18.69,23.02,25.99,14.31,46.83,1022.49,2048.98,3421.95,3093.99,3485.90,599.97,608.35,45.16,0000 0000 0000 0000 000000
2017-10-02 07:21:59,0.00,0.21,0.00,18.81,22.99,25.96,14.28,46.80,1022.48,2048.99,3421.99,3093.99,3485.99,600.05,608.12,45.21,0000 0000 0000 0000 000000
2017-10-02 07:27:00,0.00,0.21,0.00,18.82,22.95,25.96,14.27,46.77,1022.49,2048.99,3422.01,3094.06,3486.00,600.08,608.09,45.26,0000 0000 0000 0000 000000
2017-10-02 07:32:01,-0.01,0.21,0.00,18.91,22.92,25.95,14.18,46.52,1022.49,2049.02,3422.03,3094.46,3486.03,599.79,607.89,45.31,0000 0000 0000 0000 000000
2017-10-02 07:37:03,-0.02,0.21,0.00,18.88,22.89,25.97,14.31,46.77,1022.48,2049.01,3422.38,3094.89,3486.13,600.18,608.01,45.36,0000 0000 0000 0000 000000
2017-10-02 07:42:04,-0.00,0.20,0.00,19.00,22.87,25.96,14.24,46.71,1022.48,2049.06,3422.77,3094.98,3486.50,599.83,607.53,45.41,0000 0000 0000 0000 000000
2017-10-02 07:47:05,0.02,0.20,0.00,19.01,22.84,25.94,14.24,46.79,1022.49,2049.27,3422.96,3094.99,3486.87,600.01,607.70,45.47,0000 0000 0000 0000 000000
2017-10-02 07:52:06,0.02,0.21,0.00,19.09,22.83,25.95,14.22,46.58,1022.50,2049.47,3422.99,3094.99,3486.98,599.81,607.39,45.52,0000 0000 0000 0000 000000
2017-10-02 07:57:08,0.02,0.21,0.00,19.03,22.82,25.94,14.22,46.63,1022.55,2049.73,3422.99,3094.99,3486.99,599.97,607.75,45.57,0000 0000 0000 0000 000000
2017-10-02 08:02:09,0.01,0.21,0.00,19.11,22.81,26.00,14.16,46.58,1022.58,2049.91,3422.99,3095.00,3486.99,599.81,607.26,45.62,0000 0000 0000 0000 000000
2017-10-02 08:07:10,-0.00,0.21,0.00,19.16,22.80,25.98,14.15,46.58,1022.57,2049.90,3423.00,3095.01,3486.99,599.73,607.17,45.67,0000 0000 0000 0000 000000
2017-10-02 08:12:11,0.00,0.21,0.00,19.18,22.79,25.96,14.24,46.58,1022.62,2049.95,3423.00,3095.02,3486.99,599.76,607.20,45.72,0000 0000 0000 0000 000000
2017-10-02 08:17:13,0.00,0.21,0.00,19.15,22.79,25.98,14.13,46.31,1022.74,2049.98,3423.01,3095.06,3486.99,600.19,607.72,45.77,0000 0000 0000 0000 000000
2017-10-02 08:22:14,-0.00,0.21,0.00,19.17,22.79,25.96,14.16,46.44,1022.85,2049.96,3423.03,3095.05,3486.99,600.05,607.64,45.82,0000 0000 0000 0000 000000
2017-10-02 08:27:16,-0.00,0.21,0.00,19.22,22.79,26.00,14.21,46.61,1022.95,2049.95,3423.02,3095.05,3486.99,599.99,607.42,45.87,0000 0000 0000 0000 000000
2017-10-02 08:32:17,0.00,0.21,0.00,19.19,22.79,26.00,14.21,46.48,1022.96,2049.95,3423.03,3095.04,3486.99,600.08,607.65,45.92,0000 0000 0000 0000 000000
2017-10-02 08:37:18,-0.00,0.21,0.00,19.25,22.79,25.97,14.27,46.54,1022.96,2049.97,3423.03,3095.05,3486.99,599.76,607.19,45.97,0000 0000 0000 0000 000000
2017-10-02 08:42:20,-0.00,0.21,0.00,19.22,22.79,26.03,14.20,46.58,1022.96,2049.95,3423.00,3095.01,3486.97,600.06,607.60,46.02,0000 0000 0000 0000 000000
2017-10-02 08:47:21,-0.00,0.21,0.00,19.28,22.79,26.02,14.17,46.58,1022.96,2049.96,3423.00,3095.02,3486.98,599.89,607.22,46.07,0000 0000 0000 0000 000000
2017-10-02 08:52:22,0.00,0.21,0.00,19.24,22.80,26.01,14.24,46.64,1022.96,2049.93,3422.99,3095.01,3486.95,600.21,607.48,46.12,0000 0000 0000 0000 000000
2017-10-02 08:57:23,-0.00,0.21,0.00,19.28,22.80,26.03,14.21,46.63,1022.96,2049.83,3422.98,3095.00,3486.86,600.03,607.45,46.17,0000 0000 0000 0000 000000
2017-10-02 09:02:25,-0.00,0.21,0.00,19.29,22.81,26.02,14.21,46.55,1022.96,2049.87,3422.99,3095.00,3486.93,600.11,607.37,46.22,0000 0000 0000 0000 000000
2017-10-02 09:07:26,0.00,0.21,0.00,19.30,22.82,26.02,14.22,46.44,1022.96,2049.83,3422.99,3095.01,3486.80,599.97,607.35,46.27,0000 0000 0000 0000 000000
2017-10-02 09:12:27,-0.02,0.21,0.00,19.33,22.82,26.02,14.18,46.42,1022.97,2049.67,3422.99,3095.00,3486.63,600.12,607.41,46.32,0000 0000 0000 0000 000000
2017-10-02 09:17:28,-0.01,0.21,0.00,19.28,22.82,26.09,14.21,46.72,1022.99,2049.47,3422.97,3095.00,3486.27,600.05,607.52,46.38,0000 0000 0000 0000 000000
2017-10-02 09:22:29,0.02,0.21,0.00,19.33,22.82,26.12,14.22,46.54,1022.99,2049.57,3422.95,3095.00,3486.17,600.13,607.48,46.43,0000 0000 0000 0000 000000
2017-10-02 09:27:31,-0.01,0.21,0.00,19.30,22.84,26.10,14.26,46.53,1022.98,2049.49,3422.96,3095.00,3486.15,599.96,607.06,46.48,0000 0000 0000 0000 000000
2017-10-02 09:32:32,-0.02,0.21,0.00,19.35,22.84,26.12,14.22,46.63,1023.05,2049.20,3422.88,3094.99,3486.03,600.19,607.47,46.53,0000 0000 0000 0000 000000
2017-10-02 09:37:33,0.00,0.20,0.00,19.28,22.84,26.11,14.26,46.58,1023.10,2049.12,3422.52,3094.99,3486.00,599.99,607.45,46.58,0000 0000 0000 0000 000000
2017-10-02 09:42:35,0.00,0.21,0.00,19.33,22.85,26.15,14.20,46.65,1023.23,2049.19,3422.34,3094.99,3486.01,599.95,607.39,46.63,0000 0000 0000 0000 000000
2017-10-02 09:47:36,0.00,0.21,0.00,19.26,22.85,26.15,14.22,46.58,1023.10,2049.13,3422.10,3094.98,3486.00,599.97,607.37,46.68,0000 0000 0000 0000 000000
2017-10-02 09:52:37,-0.00,0.21,0.00,19.36,22.87,26.15,14.16,46.53,1023.10,2049.16,3422.04,3094.97,3486.00,600.00,607.40,46.73,0000 0000 0000 0000 000000
2017-10-02 09:57:38,-0.01,0.21,0.00,19.33,22.87,26.12,14.20,46.58,1023.09,2049.08,3422.03,3094.96,3486.00,599.93,607.33,46.78,0000 0000 0000 0000 000000
2017-10-02 10:02:40,0.00,0.21,0.00,19.32,22.87,26.13,14.24,46.63,1023.09,2049.04,3422.01,3094.86,3485.99,599.90,607.30,46.83,0000 0000 0000 0000 000000
2017-10-02 10:07:41,-0.00,0.21,0.00,19.30,22.87,26.15,14.18,46.58,1023.11,2049.03,3422.01,3094.81,3485.97,599.87,607.16,46.88,0000 0000 0000 0000 000000
2017-10-02 10:12:42,0.00,0.21,0.00,19.30,22.87,26.13,14.23,46.56,1023.08,2049.02,3422.00,3094.59,3485.98,600.00,607.57,46.93,0000 0000 0000 0000 000000
2017-10-02 10:17:43,-0.01,0.21,0.00,19.32,22.88,26.15,14.17,46.59,1023.04,2049.00,3422.01,3094.79,3485.86,599.92,607.40,46.98,0000 0000 0000 0000 000000
2017-10-02 10:22:44,0.01,0.21,0.00,19.37,22.89,26.18,14.22,46.62,1023.11,2049.00,3422.00,3094.62,3485.68,600.23,607.59,47.03,0000 0000 0000 0000 000000
2017-10-02 10:27:46,0.00,0.21,0.00,19.32,22.89,26.18,14.23,46.69,1023.24,2049.00,3421.99,3094.49,3485.45,600.00,607.46,47.08,0000 0000 0000 0000 000000
2017-10-02 10:32:47,0.01,0.21,0.00,19.28,22.89,26.18,14.29,46.69,1023.36,2049.00,3421.98,3094.24,3485.27,600.37,607.90,47.13,0000 0000 0000 0000 000000
2017-10-02 10:37:49,0.02,0.21,0.00,19.33,22.89,26.19,14.19,46.60,1023.39,2049.00,3421.39,3094.01,3485.01,599.99,607.57,47.18,0000 0000 0000 0000 000000
2017-10-02 10:42:49,0.05,0.21,0.00,19.28,22.89,26.16,14.19,46.63,1023.42,2049.00,3420.53,3093.47,3484.40,599.77,607.41,47.23,0000 0000 0000 0000 000000
2017-10-02 10:47:51,0.05,0.21,0.00,19.36,22.89,26.17,14.27,46.58,1023.45,2049.00,3419.30,3092.46,3483.23,599.99,607.40,47.28,0000 0000 0000 0000 000000
2017-10-02 10:52:52,0.05,0.21,0.00,19.29,22.89,26.15,14.18,46.54,1023.43,2049.00,3418.18,3091.44,3482.17,600.21,607.87,47.33,0000 0000 0000 0000 000000
2017-10-02 10:57:53,0.06,0.22,0.00,19.28,22.89,26.16,14.21,46.48,1023.38,2049.00,3416.84,3090.49,3480.99,600.05,607.79,47.39,0000 0000 0000 0000 000000
2017-10-02 11:02:54,0.05,0.22,0.00,19.27,22.89,26.18,14.21,46.69,1023.37,2049.00,3415.67,3089.57,3479.94,600.04,607.69,47.44,0000 0000 0000 0000 000000
2017-10-02 11:07:56,0.04,0.22,0.00,19.29,22.90,26.19,14.14,46.67,1023.29,2049.00,3414.64,3088.78,3479.06,599.78,607.37,47.49,0000 0000 0000 0000 000000
2017-10-02 11:12:57,0.03,0.23,0.00,19.30,22.90,26.15,14.25,46.65,1023.15,2049.00,3414.00,3088.05,3478.52,599.67,607.07,47.54,0000 0000 0000 0000 000000
2017-10-02 11:17:58,0.00,0.23,0.00,19.32,22.90,26.20,14.23,46.52,1023.10,2049.00,3413.98,3088.01,3478.36,600.13,607.44,47.59,0000 0000 0000 0000 000000
2017-10-02 11:22:59,0.00,0.23,0.00,19.27,22.90,26.20,14.19,46.63,1023.07,2049.01,3413.98,3088.01,3478.21,599.83,607.30,47.64,0000 0000 0000 0000 000000
2017-10-02 11:28:01,0.00,0.23,0.00,19.31,22.91,26.17,14.25,46.59,1023.03,2049.00,3413.91,3088.00,3478.05,600.13,607.55,47.69,0000 0000 0000 0000 000000
2017-10-02 11:33:02,0.00,0.23,0.00,19.27,22.91,26.18,14.25,46.65,1023.01,2049.00,3413.74,3088.00,3478.04,599.98,607.27,47.74,0000 0000 0000 0000 000000
2017-10-02 11:38:04,0.00,0.23,0.00,19.34,22.92,26.18,14.22,46.58,1022.99,2049.00,3413.45,3087.99,3478.02,599.60,607.01,47.79,0000 0000 0000 0000 000000
2017-10-02 11:43:04,0.00,0.23,0.00,19.29,22.92,26.18,14.20,46.56,1022.97,2049.00,3413.66,3087.99,3478.04,599.83,607.16,47.84,0000 0000 0000 0000 000000
2017-10-02 11:48:06,0.00,0.23,0.00,19.31,22.92,26.19,14.24,46.59,1022.97,2049.02,3413.74,3087.99,3478.08,600.30,607.39,47.89,0000 0000 0000 0000 000000
2017-10-02 11:53:07,0.00,0.23,0.00,19.26,22.92,26.20,14.23,46.73,1022.99,2049.01,3413.53,3088.00,3478.04,599.90,607.45,47.94,0000 0000 0000 0000 000000
2017-10-02 11:58:08,0.00,0.23,0.00,19.28,22.92,26.18,14.20,46.46,1022.99,2049.00,3413.28,3088.00,3478.04,599.70,607.09,47.99,0000 0000 0000 0000 000000
2017-10-02 12:03:10,-0.00,0.23,0.00,19.33,22.92,26.19,14.28,46.26,1022.98,2049.01,3413.18,3088.00,3478.02,600.50,607.65,48.04,0000 0000 0000 0000 000000
2017-10-02 12:08:11,0.00,0.23,0.00,19.31,22.92,26.16,14.20,46.53,1022.96,2049.00,3413.14,3088.00,3478.03,599.97,607.21,48.09,0000 0000 0000 0000 000000
2017-10-02 12:13:12,0.00,0.23,0.00,19.35,22.92,26.17,14.14,46.56,1022.97,2049.00,3413.04,3088.00,3478.01,599.67,607.05,48.14,0000 0000 0000 0000 000000
2017-10-02 12:18:13,0.00,0.23,0.00,19.30,22.92,26.17,14.22,46.42,1022.96,2049.01,3413.04,3087.99,3478.00,600.27,607.45,48.19,0000 0000 0000 0000 000000
2017-10-02 12:23:14,0.00,0.23,0.00,19.29,22.92,26.19,14.32,46.60,1022.96,2049.00,3413.02,3087.99,3478.00,600.70,608.10,48.24,0000 0000 0000 0000 000000
2017-10-02 12:28:16,0.00,0.23,0.00,19.33,22.92,26.20,14.23,46.42,1022.96,2049.01,3413.02,3087.99,3478.01,600.15,607.41,48.29,0000 0000 0000 0000 000000
2017-10-02 12:33:17,0.00,0.23,0.00,19.33,22.92,26.18,14.15,46.49,1022.96,2049.00,3413.01,3087.98,3478.00,599.85,607.19,48.35,0000 0000 0000 0000 000000
2017-10-02 12:38:18,0.00,0.23,0.00,19.35,22.92,26.18,14.32,46.56,1022.96,2049.00,3413.00,3087.98,3478.00,600.49,607.59,48.40,0000 0000 0000 0000 000000
2017-10-02 12:43:19,0.00,0.23,0.00,19.29,22.92,26.20,14.19,46.57,1022.97,2049.01,3413.00,3087.98,3478.00,599.71,607.01,48.45,0000 0000 0000 0000 000000
2017-10-02 12:48:21,0.00,0.23,0.00,19.31,22.93,26.20,14.26,46.56,1022.97,2049.01,3413.00,3087.98,3478.00,599.91,607.25,48.50,0000 0000 0000 0000 000000
2017-10-02 12:53:22,0.00,0.23,0.00,19.30,22.93,26.20,14.20,46.60,1022.97,2049.00,3413.00,3087.96,3478.00,600.24,607.37,48.55,0000 0000 0000 0000 000000